Lapse_Rate
4.5 4.5 4.3 4.1 4.1 4.1 4.0 4.0 3.9 3.7 3.7 3.7 3.6 3.5 3.6 3.8 3.6 3.4 3.2 2.8 2.9 3.0 3.4 3.6 3.9 4.9 8.5 8.4 8.3 9.8 5.7 7.8 8.4 9.7 9.1 8.6 8.1 7.7 6.5 6.6 7.1 6.5 6.5 7.3 7.6 7.5 7.4
4.4 4.6 4.3 4.4 4.5 3.9 3.8 4.0 3.9 3.8 3.9 3.8 3.8 3.8 3.7 3.9 3.9 3.8 3.6 3.1 2.9 3.1 3.9 4.0 4.4 5.0 8.9 6.8 9.7 9.9 10.1 9.9 9.7 9.6 9.1 9.0 8.2 8.4 7.4 6.8 6.5 7.1 7.0 6.9 7.4 7.3 7.4
4.4 4.5 4.3 4.0 3.8 3.8 3.8 3.9 3.8 4.0 4.1 4.0 4.1 4.0 4.1 3.9 3.8 3.7 3.6 3.5 3.0 3.4 3.7 4.1 5.3 7.8 8.8 8.1 10.1 9.9 10.1 9.7 9.9 9.6 8.8 9.2 9.1 8.1 7.9 6.5 7.8 7.3 6.5 6.5 6.5 7.0 6.6
5.5 4.9 4.1 3.7 3.7 4.1 4.1 4.0 4.2 4.5 4.4 4.2 4.3 4.2 4.3 4.1 4.1 4.2 4.4 4.0 3.5 3.7 4.4 4.8 5.7 9.3 7.9 9.9 9.8 10.0 10.1 9.7 10.1 10.0 9.5 9.4 9.3 8.4 7.8 7.8 7.1 6.5 6.5 6.5 6.5 6.5 6.7
5.6 5.2 4.5 4.3 4.4 4.4 4.4 4.7 4.2 4.3 4.3 4.4 4.6 4.6 4.2 4.2 4.4 4.8 5.3 4.6 4.0 4.7 6.4 6.8 8.5 8.3 7.5 8.9 9.0 9.8 10.0 9.1 9.5 9.5 9.5 9.6 9.0 7.8 7.5 6.5 6.5 6.5 6.5 6.5 6.5 6.5 6.5
5.7 5.2 4.8 4.6 4.4 4.6 4.7 4.6 3.7 4.4 4.6 4.9 4.7 4.7 5.0 5.2 5.5 5.6 5.4 4.2 6.8 7.1 7.9 10.0 9.8 7.7 8.5 8.0 9.0 9.4 9.9 9.6 8.7 8.7 8.3 8.2 7.8 6.5 6.5 6.5 6.5 6.5 6.5 6.5 6.5 6.5 6.5
7.2 4.9 5.2 5.1 4.7 4.5 4.4 4.6 4.7 5.0 5.5 5.3 5.3 5.8 5.5 6.1 6.2 6.2 6.8 10.1 8.9 8.2 8.8 7.9 7.9 8.0 8.5 9.3 9.7 9.2 9.6 8.9 8.7 8.0 6.5 7.2 6.5 6.5 6.5 6.5 6.5 6.5 6.5 6.5 6.5 6.5 6.5
6.8 6.6 5.7 5.7 4.9 4.6 4.5 5.0 5.2 5.4 5.3 5.5 5.9 6.0 6.0 6.3 6.1 6.2 8.1 8.9 8.9 8.9 7.1 8.7 8.8 8.8 9.1 9.3 7.8 8.6 9.5 7.7 7.1 6.5 6.5 6.5 6.5 6.5 6.5 6.5 6.5 6.5 6.5 6.5 6.5 6.5 6.5
7.6 6.3 5.8 5.4 4.8 4.6 5.1 5.3 5.0 5.5 5.5 5.9 6.1 6.4 6.3 6.0 6.1 7.4 9.6 9.2 10.1 9.9 7.1 7.7 8.4 8.1 8.2 8.7 7.6 7.8 8.7 8.0 6.5 6.5 6.5 6.5 6.5 6.5 6.5 6.5 6.5 6.5 6.5 6.5 6.5 6.5 6.5
8.0 7.3 6.3 5.8 5.2 5.4 5.9 5.7 5.6 5.8 6.0 6.1 6.3 6.4 6.5 5.6 7.4 9.8 9.0 10.2 9.9 9.9 6.5 6.5 6.8 7.7 8.1 8.2 6.8 8.7 8.9 8.0 6.7 6.5 6.5 6.5 6.5 6.5 6.5 6.5 6.5 6.5 6.5 6.5 6.5 6.5 6.5
8.6 8.0 7.2 6.7 5.9 6.6 6.4 5.8 5.9 6.2 6.2 6.3 6.5 6.4 6.1 6.4 9.5 9.2 9.6 9.9 9.9 8.7 6.5 6.5 6.8 9.0 8.4 7.2 7.3 7.4 8.8 8.0 6.5 6.5 6.5 6.5 6.5 6.5 6.5 6.5 6.5 6.5 6.5 6.5 6.5 6.5 6.5
8.6 7.9 7.5 6.8 6.9 7.1 6.4 6.1 6.3 6.3 6.2 6.2 6.2 6.2 6.0 9.2 9.9 9.9 9.8 9.9 9.2 6.5 6.5 6.5 6.9 6.5 6.5 6.8 7.0 7.6 7.5 8.3 7.9 6.5 6.5 6.5 6.9 6.5 6.5 6.5 6.5 6.5 6.5 6.5 6.5 6.5 6.5
8.4 8.4 8.2 7.7 7.3 6.7 6.4 6.5 6.4 6.3 6.2 6.1 6.0 5.7 6.6 9.6 9.1 9.6 9.7 9.0 6.5 6.5 6.5 6.5 6.5 6.5 6.5 6.5 6.5 6.5 6.5 6.5 6.5 6.5 6.5 6.5 6.5 6.5 6.5 6.5 6.5 6.5 6.5 6.5 6.5 6.5 6.5
8.5 8.7 8.6 8.3 7.7 7.1 6.8 6.7 6.5 6.2 6.1 6.0 5.7 5.2 7.0 9.9 9.5 9.6 9.3 6.7 6.5 6.5 6.5 6.5 6.5 6.5 6.5 6.5 6.5 6.5 6.5 6.5 6.5 6.5 6.5 6.5 6.5 6.5 6.5 6.5 6.5 6.5 6.5 6.5 6.5 6.5 6.5
8.6 8.9 8.4 8.3 7.9 7.2 6.9 6.7 6.4 6.1 6.1 5.7 5.7 9.8 9.6 9.9 9.2 9.8 7.9 6.5 6.5 6.5 6.5 6.5 6.5 6.5 6.5 6.5 6.5 6.5 6.5 6.5 6.5 6.5 6.5 6.5 6.5 6.5 6.5 6.5 6.5 6.5 6.5 6.5 6.5 6.5 6.5
8.4 8.6 8.2 8.3 7.9 7.1 6.9 6.9 6.6 6.2 5.9 5.5 9.7 9.3 9.1 8.4 9.1 9.1 6.7 6.5 6.5 6.6 6.6 6.5 6.5 6.5 6.5 6.5 6.5 6.5 6.5 6.5 6.5 6.5 6.5 6.5 6.5 6.5 6.5 6.5 6.5 6.5 6.5 6.5 6.5 6.5 6.5
8.7 8.8 8.5 8.5 7.8 7.2 7.0 6.9 6.6 6.3 5.9 5.6 9.3 8.1 9.4 8.6 9.5 7.8 6.5 6.5 6.5 7.3 7.2 6.5 6.5 6.5 6.5 6.5 6.5 6.5 6.5 6.5 6.5 6.5 6.5 6.5 6.5 6.5 6.5 6.5 6.5 6.5 6.5 6.5 6.5 6.5 6.5
8.7 9.0 8.8 8.5 7.9 7.7 7.3 7.0 6.5 6.3 5.8 5.8 8.8 6.5 9.5 9.8 6.8 6.8 6.5 6.5 6.7 6.7 7.3 6.5 6.5 6.5 6.5 6.5 6.5 6.5 6.5 6.5 6.8 6.5 6.5 6.5 6.5 6.5 6.5 6.5 6.5 6.5 6.5 6.5 6.5 6.5 6.5
8.9 8.8 8.5 8.6 8.3 7.8 7.4 7.1 6.6 6.4 5.8 9.6 7.9 7.9 9.5 9.2 6.5 6.5 6.6 6.5 6.8 6.5 6.5 6.5 6.5 6.5 6.5 6.5 6.5 6.5 6.5 6.6 6.8 6.5 6.5 6.5 6.5 6.5 6.5 6.5 6.5 6.5 6.5 6.5 6.5 6.5 6.5
8.8 8.9 8.6 8.5 8.4 8.1 7.4 7.2 6.9 6.4 5.9 8.7 7.9 6.5 7.8 8.3 7.9 6.6 6.5 6.5 6.5 7.2 6.6 6.9 6.5 6.6 6.5 6.5 6.5 6.5 6.5 6.5 7.0 6.6 6.2 6.5 6.5 6.5 6.5 6.5 6.5 6.5 6.5 6.5 6.5 6.5 6.5
8.6 8.8 8.6 8.3 8.6 8.1 7.6 7.3 7.0 6.5 6.2 8.2 8.0 6.8 7.6 6.5 6.6 6.5 6.6 6.5 6.5 6.5 6.9 7.0 6.5 6.5 6.5 6.5 6.5 6.5 6.5 6.5 6.6 6.7 6.5 6.5 6.5 6.5 6.5 6.5 6.5 6.5 6.5 6.5 6.5 6.5 6.5
8.6 8.7 8.5 8.3 8.4 8.3 7.7 7.4 7.0 6.6 6.3 8.9 5.4 7.2 8.0 7.1 7.2 6.5 6.5 6.5 6.5 6.5 6.5 6.5 6.5 6.5 6.5 6.5 6.5 6.5 6.5 6.5 6.5 6.5 6.5 6.5 6.5 6.5 6.5 6.5 6.5 6.5 6.5 6.5 6.5 6.5 6.5
8.6 8.7 8.4 8.3 8.7 8.4 7.9 7.5 7.1 6.7 6.3 8.7 9.2 9.1 8.3 6.7 6.6 6.5 6.5 6.5 6.5 6.6 6.8 7.1 6.6 6.5 6.5 6.5 7.2 7.1 7.3 7.0 6.6 6.5 6.5 6.5 6.5 6.5 6.5 6.5 6.5 6.5 6.5 6.5 6.5 6.5 6.5
8.4 8.6 8.6 8.6 8.9 8.6 8.0 7.5 7.2 7.0 6.5 9.3 9.3 9.0 7.4 6.5 6.5 6.5 6.5 6.7 6.5 6.6 6.5 7.0 7.2 6.5 7.3 8.1 7.8 7.4 7.1 6.9 6.6 6.5 6.6 6.5 6.5 6.5 6.5 6.5 6.5 6.5 6.5 6.5 6.5 6.5 6.5
8.4 8.6 8.5 8.7 8.8 8.8 8.4 7.7 7.3 7.2 7.2 8.5 9.7 8.7 7.8 6.5 6.8 6.6 6.6 6.6 7.0 7.2 6.7 6.8 7.4 7.9 8.5 7.5 6.5 6.5 6.5 6.5 6.5 6.5 6.5 6.5 6.5 6.5 6.5 6.5 6.5 6.5 6.5 6.5 6.5 6.5 6.5
8.4 8.3 8.7 8.5 8.8 8.8 8.3 7.8 7.3 7.3 7.3 8.5 9.6 9.1 8.4 7.0 6.6 7.5 6.8 7.0 6.5 6.5 6.5 6.9 8.1 8.5 8.1 6.5 6.5 6.5 6.5 6.5 6.5 6.5 6.5 6.5 6.5 6.5 6.5 6.5 6.5 6.5 6.5 7.2 6.5 6.5 6.6
8.2 8.5 8.6 8.4 8.7 8.7 8.5 7.9 7.6 7.4 7.2 7.2 6.5 7.3 8.7 7.3 8.0 8.0 6.9 6.8 7.6 7.0 6.5 7.0 7.4 7.2 7.9 6.5 6.5 6.5 6.5 6.5 6.5 6.5 6.5 6.5 6.5 6.5 6.5 6.5 6.5 6.5 6.7 7.4 6.5 6.5 6.9
8.2 8.5 8.3 8.3 8.5 8.4 8.5 8.0 7.7 7.6 7.3 7.7 8.2 8.5 8.6 7.7 8.2 8.4 8.4 7.6 7.6 7.6 6.5 7.2 6.9 7.1 6.6 6.5 6.5 6.5 6.5 6.5 6.5 6.5 6.5 6.5 6.5 6.5 6.5 6.5 6.5 7.0 6.8 6.5 6.7 7.1 7.2
8.3 8.4 8.0 8.1 8.3 8.3 8.6 8.1 7.8 7.5 7.5 7.0 6.8 8.1 7.2 8.0 8.4 9.2 9.2 9.3 9.0 8.7 8.0 7.7 7.0 6.9 7.1 6.5 6.5 6.5 6.5 6.5 6.5 6.5 6.5 6.5 6.5 6.5 6.5 6.5 6.8 7.1 6.9 7.1 7.5 7.3 7.3
Wind_Speed
13 11 11 10 8 6 5 3 4 5 7 9 10 11 12 14 16 19 22 23 24 25 27 24 22 18 12 10 20 18 8 14 16 14 14 13 20 21 29 27 26 31 27 26 24 23 21
14 12 11 9 7 6 4 2 3 4 6 9 10 12 15 16 18 20 22 24 25 28 28 27 23 15 13 23 12 15 11 9 13 17 18 18 17 19 21 28 27 26 28 26 24 21 20
14 13 13 10 6 3 2 1 4 5 7 8 10 12 15 18 19 21 24 27 29 30 27 27 20 10 17 25 10 17 12 14 13 13 17 17 16 18 19 23 22 27 23 21 21 27 24
14 14 12 9 6 4 3 3 3 4 6 9 11 13 15 19 21 23 26 28 33 31 28 24 11 8 10 9 13 20 22 22 20 21 20 17 14 18 22 14 21 17 25 24 24 21 20
14 12 11 9 7 3 1 1 2 4 7 9 11 14 17 19 22 24 27 33 34 28 18 12 8 6 14 4 11 12 17 18 17 17 19 16 17 18 16 20 18 25 21 27 26 25 23
15 13 11 9 7 5 3 3 4 5 8 9 12 15 18 21 22 25 30 37 30 16 10 12 8 5 11 11 3 6 10 12 13 14 17 21 12 18 20 18 23 23 24 22 23 19 21
14 11 11 10 8 5 3 2 4 6 7 10 12 14 18 21 23 26 23 14 7 6 5 12 18 20 25 23 22 24 21 13 14 16 20 23 19 23 35 28 24 22 20 21 16 20 19
14 13 10 8 6 4 3 2 2 4 7 10 12 14 17 20 24 24 15 9 10 5 15 21 26 27 26 20 17 20 21 20 18 21 21 19 26 31 24 24 23 22 19 18 16 17 8
15 12 11 9 7 5 3 1 3 5 7 9 12 13 16 21 25 14 10 8 9 12 8 21 16 13 10 7 18 20 19 21 23 22 23 27 23 24 25 21 21 19 19 19 17 12 14
15 12 10 9 7 4 2 1 3 5 6 8 11 13 15 23 12 9 4 11 12 8 6 8 8 4 4 5 10 12 16 23 24 27 23 25 23 18 22 23 20 19 20 21 18 14 14
15 13 10 8 5 4 2 2 4 5 7 9 11 13 16 12 8 7 10 13 12 1 7 6 5 5 8 8 11 15 3 20 27 26 20 19 21 19 23 23 18 17 18 19 16 16 15
14 12 11 7 6 4 2 2 3 6 8 10 11 12 16 7 6 7 14 13 7 6 8 5 10 17 18 19 21 15 19 15 22 26 21 17 12 15 15 19 14 21 11 11 13 12 14
14 12 11 9 6 5 2 2 4 7 9 11 12 12 11 7 7 14 13 9 6 7 12 13 23 24 25 20 21 23 20 18 21 20 16 15 18 16 13 12 16 17 16 8 9 10 11
16 12 8 9 6 3 1 3 5 8 10 12 13 13 5 4 12 11 9 9 9 12 20 23 20 27 25 16 16 16 13 16 25 25 12 15 7 15 16 17 13 19 17 7 11 13 13
15 14 9 9 6 3 1 3 6 8 11 12 15 3 2 7 9 7 8 5 11 14 17 18 25 18 16 15 14 13 19 19 23 25 8 14 5 13 15 11 16 17 15 18 6 9 4
16 13 11 10 6 4 1 4 6 9 11 8 5 2 3 7 6 8 5 8 11 13 18 18 17 10 15 28 16 16 12 17 26 19 12 5 6 12 15 11 7 14 14 6 6 4 6
16 13 9 10 7 5 2 3 6 9 6 6 5 4 5 6 6 3 4 10 13 14 13 8 14 20 17 22 8 12 7 16 20 19 12 10 9 12 14 13 14 6 10 5 5 3 4
16 14 10 9 7 5 3 2 5 6 5 8 3 1 4 5 3 2 5 11 8 13 14 10 10 14 12 17 9 6 5 11 7 13 13 11 4 12 19 14 9 14 11 10 5 5 1
14 12 11 10 9 6 3 1 5 5 5 5 2 1 3 4 3 5 9 8 11 17 14 7 8 6 11 7 4 7 3 13 3 3 4 6 5 10 6 9 6 10 7 4 3 2 5
15 13 10 11 11 7 3 2 4 5 6 5 1 0 1 2 1 8 9 8 15 8 6 14 10 7 16 6 8 10 8 15 14 9 10 2 5 8 6 12 14 8 10 7 3 3 1
16 15 12 13 10 6 4 3 5 5 7 5 2 2 1 0 2 7 7 9 13 12 9 15 5 20 16 8 13 15 14 8 13 20 7 5 6 8 5 11 12 11 10 6 4 2 3
17 14 14 14 10 6 5 3 5 4 8 4 3 3 4 1 4 5 1 7 11 13 5 13 18 21 17 18 18 19 15 11 6 11 10 12 5 8 12 10 10 10 6 2 2 3 6
17 16 13 15 11 6 6 4 4 7 10 2 1 2 5 2 2 4 3 7 12 11 6 13 16 16 14 22 23 16 10 7 7 4 5 7 4 4 4 5 7 7 9 6 5 19 12
18 17 17 14 9 9 7 3 4 7 16 4 1 4 2 3 4 4 6 8 10 11 10 13 14 14 15 22 17 3 2 2 5 5 6 4 2 2 4 4 4 7 10 7 16 18 15
18 17 16 15 12 9 9 5 4 6 16 6 1 2 3 4 3 2 7 7 8 6 8 8 13 14 16 14 5 2 4 4 8 10 7 7 4 2 1 4 13 8 9 9 8 10 16
17 18 16 15 13 11 9 6 3 4 10 3 1 4 3 3 3 4 6 3 6 8 6 7 13 9 14 5 4 5 4 8 5 5 6 3 3 1 2 4 3 7 16 14 8 4 15
18 17 15 16 15 12 8 5 4 3 6 5 1 3 3 3 4 5 7 7 6 7 7 8 15 8 12 7 5 5 4 5 4 5 6 5 5 6 2 2 7 11 21 20 4 4 8
19 16 14 18 14 13 11 7 5 4 4 10 2 8 3 3 7 8 6 7 6 6 6 11 7 7 6 7 5 4 4 6 4 7 6 7 6 5 3 2 4 19 8 6 5 7 8
18 16 11 17 15 15 12 9 6 5 4 13 2 7 5 4 5 9 11 13 12 12 7 4 1 6 4 3 5 3 3 3 5 1 10 3 5 4 6 3 4 7 9 8 7 7 9
Wind_Direction
161 160 160 153 145 137 115 74 38 27 15 2 355 351 343 333 333 331 327 322 318 313 310 308 308 309 307 263 248 269 193 261 263 261 250 227 225 230 233 233 239 235 241 248 257 255 259
163 165 155 154 149 127 101 44 8 27 6 358 350 347 341 332 329 324 321 316 309 304 301 302 300 294 264 270 270 270 276 265 261 244 239 243 245 231 242 239 241 242 240 250 247 251 245
164 177 161 149 136 120 113 60 51 9 0 357 348 345 335 330 327 325 321 312 304 297 302 302 299 253 253 251 274 282 259 247 277 274 261 251 245 252 240 250 244 256 256 246 245 241 241
160 149 149 142 133 135 111 80 39 5 356 356 348 343 332 329 325 322 316 307 297 298 301 295 275 241 254 278 259 252 257 261 255 250 250 265 276 267 248 259 247 240 241 248 234 236 234
159 154 150 146 150 153 144 102 87 13 4 356 345 334 333 328 323 318 311 302 292 292 289 261 210 219 272 92 239 249 234 254 256 245 233 234 243 241 233 234 239 230 237 231 243 237 227
163 164 161 162 160 155 120 86 65 24 356 343 341 338 329 326 320 317 310 292 278 284 236 230 253 241 233 260 170 259 262 282 250 244 220 218 221 226 230 218 222 218 222 241 250 211 222
166 167 172 170 159 152 124 66 34 2 347 347 347 336 331 324 320 317 311 313 12 227 334 285 283 259 275 294 295 277 271 247 230 241 217 204 209 214 219 220 231 251 249 237 227 242 231
170 166 161 159 151 145 113 61 29 353 352 344 337 335 327 321 317 309 295 9 32 309 300 273 258 261 270 277 273 263 268 228 243 233 214 212 220 223 227 221 226 240 250 257 270 266 226
171 168 166 166 154 141 140 123 14 350 350 337 332 329 324 316 315 299 325 18 333 334 275 296 258 254 250 249 264 272 249 241 238 226 228 222 221 224 229 220 221 222 233 247 260 260 251
168 170 168 166 150 144 144 34 19 353 337 334 323 321 321 316 279 337 12 350 343 342 280 271 178 162 192 261 267 290 232 231 237 242 230 226 224 212 218 217 215 221 225 247 259 256 251
164 166 169 161 147 154 148 60 14 331 327 320 314 321 323 316 310 328 341 331 318 5 293 53 110 93 239 234 285 309 159 218 239 216 240 217 221 221 211 211 206 229 233 239 240 252 257
165 174 169 157 150 160 133 44 338 320 319 312 314 317 321 310 267 349 328 310 261 247 267 337 357 343 317 301 310 286 247 223 230 250 241 223 203 201 203 192 216 226 218 223 240 243 243
173 178 171 162 161 158 166 281 306 315 311 313 313 315 307 299 331 327 313 267 263 253 331 345 334 330 319 313 314 303 251 198 212 220 227 182 212 189 194 174 194 202 199 184 203 210 238
173 157 160 170 159 144 164 285 299 310 309 312 308 309 166 313 323 316 272 273 290 329 332 340 327 312 296 21 312 319 250 196 213 224 201 183 198 174 182 195 181 195 192 210 214 210 218
180 165 179 169 170 167 225 284 297 305 308 313 293 196 261 10 333 284 281 322 2 335 326 320 317 310 324 327 325 299 242 195 206 224 160 194 214 165 215 190 192 208 215 237 264 232 270
176 170 173 173 179 176 223 291 300 308 310 313 298 265 73 338 330 281 306 319 342 337 325 318 307 301 311 308 316 331 225 184 204 219 108 215 129 186 185 190 204 218 192 185 228 236 226
174 166 181 177 178 181 226 277 308 312 309 291 264 247 60 340 281 285 324 354 332 327 338 329 293 293 291 302 294 305 215 166 199 195 200 269 141 185 181 201 185 174 173 222 242 301 284
174 165 180 177 180 200 230 290 319 305 284 268 276 290 52 298 235 219 344 335 331 324 318 310 302 287 277 296 292 291 326 161 147 189 214 215 231 171 198 204 256 190 196 207 234 182 254
177 176 190 187 187 194 224 311 322 289 293 299 311 328 130 275 338 358 14 342 346 345 332 324 300 317 295 302 277 245 60 11 176 181 247 183 208 176 178 180 172 179 170 124 85 304 197
186 186 190 201 182 192 197 285 312 306 266 278 51 177 145 172 167 317 3 353 359 20 19 346 297 307 330 345 353 350 43 27 45 29 341 246 197 219 255 172 172 168 139 171 191 208 194
192 190 193 188 178 181 214 269 302 313 235 271 333 238 77 232 124 339 338 352 358 11 357 343 330 355 352 346 333 6 11 11 42 12 23 23 110 75 65 114 143 154 142 156 153 289 296
186 191 197 183 176 190 214 260 289 273 218 262 147 263 169 217 264 286 43 353 352 351 347 330 355 346 339 3 351 336 349 32 27 349 20 340 73 84 91 94 114 114 102 189 231 261 277
192 191 186 175 182 185 215 244 283 229 213 258 124 144 279 143 234 276 43 323 319 329 323 346 345 338 346 347 325 312 313 322 326 9 118 5 0 125 105 95 124 116 47 33 101 45 27
194 190 182 193 184 200 206 233 277 238 227 295 349 300 277 265 274 355 332 321 318 325 313 327 355 345 331 323 309 194 303 316 44 96 333 162 189 312 120 195 157 73 39 39 74 55 33
193 193 187 196 184 192 208 219 273 250 227 285 221 304 308 286 307 241 330 331 306 312 323 338 351 337 325 318 326 237 174 201 74 48 45 16 323 89 163 87 115 93 42 17 337 59 20
189 186 194 193 189 193 201 208 250 249 204 266 302 330 306 284 81 357 312 317 340 344 329 352 355 334 340 301 308 344 35 322 13 115 75 67 316 333 168 144 150 36 5 355 296 94 9
186 191 198 194 193 191 185 196 229 212 183 176 254 284 292 290 326 336 10 341 337 340 313 345 345 350 356 341 332 353 37 310 8 23 15 25 21 21 92 45 90 353 315 311 265 37 14
186 195 198 194 192 189 185 189 207 212 176 208 182 195 247 274 299 301 285 292 324 317 333 352 326 13 354 11 358 5 337 359 316 46 13 14 331 32 346 337 95 355 10 43 341 37 29
188 189 199 196 190 187 195 185 217 230 238 197 181 197 229 273 305 320 287 283 283 293 303 306 320 341 7 335 23 299 304 330 350 44 35 43 24 5 25 56 51 35 60 34 42 58 39